Weather History for Walnut Ridge, AR

Change the Weather History Date:

Thursday, June 6, 2013

  Actual Average Record
Temperature  
Mean Temperature 74 °F -  
Max Temperature 82 °F 82 °F 96 °F (2011)
Min Temperature 66 °F 64 °F 51 °F (1998)
Cooling Degree Days 9    
Growing Degree Days 24 (Base 50)    
Moisture  
Dew Point 64 °F    
Average Humidity 73    
Maximum Humidity 94    
Minimum Humidity 51    
Precipitation  
Precipitation 0.00 in - - ()
Sea Level Pressure  
Sea Level Pressure 29.84 in    
Wind  
Wind Speed 9 mph (NNW)    
Max Wind Speed 14 mph    
Max Gust Speed 17 mph    
Visibility 10 miles    
Events      
Averages and records for this station are not official NWS values.
T = Trace of Precipitation, MM = Missing Value Source: NWS Daily Summary

Daily Weather History Graph

Daily Weather History Graph

Search for Another Location

Airport:

Trip Planner

Search our weather history database for the weather conditions in past years. The results will help you decide how hot, cold, wet, or windy it might be!

Date:

Astronomy

Jun. 06, 2013 Rise Set
Actual Time 5:46 AM CDT 8:18 PM CDT
Civil Twilight 5:16 AM CDT 8:48 PM CDT
Nautical Twilight 4:39 AM CDT 9:25 PM CDT
Astronomical Twilight 3:58 AM CDT 10:07 PM CDT
Moon 4:25 AM CDT (6/6) 6:42 PM CDT (6/6)
Length of Visible Light 15h 31m
Length of Day
14h 31m
Waning Crescent, 3% of the Moon is Illuminated
Jun 6
Waning Crescent
Jun 8
New
Jun 16
First Quarter
Jun 23
Full
Jun 29
Last Quarter

Hourly Weather History & Observations

Time (CDT) Temp. Heat Index Dew Point Humidity Pressure Visibility Wind Dir Wind Speed Gust Speed Precip Events Conditions
12:15 AM 69.8 °F - 68.0 °F 94% 29.84 in 10.0 mi North 5.8 mph - N/A   Clear
12:35 AM 69.8 °F - 68.0 °F 94% 29.84 in 10.0 mi NNW 6.9 mph - N/A   Clear
12:55 AM 69.8 °F - 68.0 °F 94% 29.84 in 10.0 mi NW 6.9 mph - N/A   Scattered Clouds
1:16 AM 69.8 °F - 68.0 °F 94% 29.84 in 10.0 mi NW 8.1 mph - N/A   Overcast
1:35 AM 69.8 °F - 68.0 °F 94% 29.85 in 10.0 mi NNW 10.4 mph - N/A   Overcast
1:55 AM 69.8 °F - 68.0 °F 94% 29.84 in 10.0 mi NNW 9.2 mph - N/A   Overcast
2:15 AM 69.8 °F - 66.2 °F 88% 29.83 in 10.0 mi NNW 8.1 mph - N/A   Overcast
2:35 AM 69.8 °F - 66.2 °F 88% 29.83 in 10.0 mi NNW 6.9 mph - N/A   Overcast
2:55 AM 69.8 °F - 66.2 °F 88% 29.82 in 10.0 mi North 6.9 mph - N/A   Overcast
3:15 AM 69.8 °F - 66.2 °F 88% 29.82 in 10.0 mi NNW 8.1 mph - N/A   Overcast
3:35 AM 69.8 °F - 66.2 °F 88% 29.82 in 10.0 mi NNW 9.2 mph - N/A   Overcast
3:55 AM 69.8 °F - 66.2 °F 88% 29.83 in 10.0 mi NNW 8.1 mph - N/A   Overcast
4:15 AM 69.8 °F - 66.2 °F 88% 29.84 in 10.0 mi NNW 11.5 mph - N/A   Overcast
4:36 AM 68.0 °F - 66.2 °F 94% 29.83 in 9.0 mi North 9.2 mph - N/A   Overcast
4:55 AM 68.0 °F - 64.4 °F 88% 29.84 in 10.0 mi NW 9.2 mph - N/A   Overcast
5:15 AM 68.0 °F - 64.4 °F 88% 29.85 in 10.0 mi NW 13.8 mph - N/A   Overcast
5:35 AM 66.2 °F - 64.4 °F 94% 29.84 in 10.0 mi NNW 11.5 mph - N/A   Overcast
6:15 AM 66.2 °F - 64.4 °F 94% 29.85 in 9.0 mi NNW 8.1 mph - N/A   Overcast
6:35 AM 66.2 °F - 62.6 °F 88% 29.85 in 9.0 mi NW 9.2 mph - N/A   Overcast
6:55 AM 66.2 °F - 62.6 °F 88% 29.85 in 9.0 mi NW 11.5 mph - N/A   Scattered Clouds
7:15 AM 66.2 °F - 62.6 °F 88% 29.86 in 10.0 mi NNW 12.7 mph - N/A   Partly Cloudy
7:35 AM 66.2 °F - 62.6 °F 88% 29.86 in 10.0 mi NNW 11.5 mph - N/A   Partly Cloudy
8:35 AM 69.8 °F - 62.6 °F 78% 29.86 in 10.0 mi North 11.5 mph - N/A   Mostly Cloudy
8:55 AM 71.6 °F - 62.6 °F 73% 29.87 in 10.0 mi North 12.7 mph - N/A   Scattered Clouds
9:15 AM 71.6 °F - 62.6 °F 73% 29.86 in 10.0 mi North 12.7 mph - N/A   Mostly Cloudy
9:35 AM 71.6 °F - 62.6 °F 73% 29.86 in 10.0 mi North 11.5 mph - N/A   Overcast
9:55 AM 71.6 °F - 62.6 °F 73% 29.85 in 10.0 mi North 9.2 mph - N/A   Overcast
10:15 AM 73.4 °F - 62.6 °F 69% 29.86 in 10.0 mi NNW 8.1 mph - N/A   Overcast
10:35 AM 75.2 °F - 64.4 °F 69% 29.86 in 10.0 mi North 9.2 mph - N/A   Mostly Cloudy
10:55 AM 75.2 °F - 62.6 °F 65% 29.87 in 10.0 mi NNE 6.9 mph - N/A   Mostly Cloudy
11:15 AM 77.0 °F - 62.6 °F 61% 29.88 in 10.0 mi North 5.8 mph - N/A   Mostly Cloudy
11:35 AM 77.0 °F - 62.6 °F 61% 29.88 in 10.0 mi NNW 8.1 mph - N/A   Clear
11:55 AM 78.8 °F - 62.6 °F 57% 29.88 in 10.0 mi NNW 9.2 mph - N/A   Clear
12:16 PM 78.8 °F - 62.6 °F 57% 29.87 in 10.0 mi NNW 9.2 mph - N/A   Clear
12:35 PM 78.8 °F - 62.6 °F 57% 29.87 in 10.0 mi NNW 6.9 mph - N/A   Clear
12:55 PM 78.8 °F - 62.6 °F 57% 29.87 in 10.0 mi North 5.8 mph - N/A   Clear
1:15 PM 78.8 °F - 62.6 °F 57% 29.86 in 10.0 mi NNW 6.9 mph - N/A   Clear
1:35 PM 80.6 °F 81.8 °F 62.6 °F 54% 29.85 in 10.0 mi NW 8.1 mph - N/A   Clear
1:55 PM 80.6 °F 82.3 °F 64.4 °F 58% 29.85 in 10.0 mi NW 9.2 mph - N/A   Clear
2:15 PM 80.6 °F 82.3 °F 64.4 °F 58% 29.84 in 10.0 mi NNW 8.1 mph - N/A   Scattered Clouds
2:36 PM 80.6 °F 82.3 °F 64.4 °F 58% 29.84 in 10.0 mi NNW 8.1 mph - N/A   Scattered Clouds
2:55 PM 80.6 °F 82.3 °F 64.4 °F 58% 29.84 in 10.0 mi NNW 9.2 mph - N/A   Partly Cloudy
3:15 PM 80.6 °F 82.3 °F 64.4 °F 58% 29.84 in 10.0 mi North 9.2 mph - N/A   Partly Cloudy
3:35 PM 80.6 °F 82.3 °F 64.4 °F 58% 29.84 in 10.0 mi NNW 8.1 mph - N/A   Scattered Clouds
3:55 PM 80.6 °F 82.3 °F 64.4 °F 58% 29.83 in 10.0 mi NW 9.2 mph - N/A   Mostly Cloudy
4:15 PM 80.6 °F 81.8 °F 62.6 °F 54% 29.82 in 10.0 mi NW 9.2 mph - N/A   Mostly Cloudy
4:35 PM 82.4 °F 83.4 °F 62.6 °F 51% 29.82 in 10.0 mi NNW 11.5 mph 17.3 mph N/A   Clear
4:55 PM 80.6 °F 81.8 °F 62.6 °F 54% 29.82 in 10.0 mi NW 12.7 mph - N/A   Scattered Clouds
5:15 PM 80.6 °F 82.3 °F 64.4 °F 58% 29.81 in 10.0 mi North 11.5 mph - N/A   Mostly Cloudy
5:35 PM 80.6 °F 82.3 °F 64.4 °F 58% 29.81 in 10.0 mi North 12.7 mph - N/A   Scattered Clouds
5:55 PM 78.8 °F - 64.4 °F 61% 29.80 in 10.0 mi North 11.5 mph - N/A   Clear
6:16 PM 78.8 °F - 62.6 °F 57% 29.80 in 10.0 mi North 11.5 mph - N/A   Clear
6:35 PM 77.0 °F - 60.8 °F 57% 29.80 in 10.0 mi NNW 12.7 mph - N/A   Clear
6:55 PM 77.0 °F - 60.8 °F 57% 29.81 in 10.0 mi NNW 10.4 mph - N/A   Clear
7:15 PM 75.2 °F - 62.6 °F 65% 29.81 in 10.0 mi NNW 10.4 mph - N/A   Clear
7:16 PM 75.2 °F - 62.6 °F 65% 29.81 in 10.0 mi NNW 11.5 mph - N/A   Clear
7:35 PM 75.2 °F - 62.6 °F 65% 29.82 in 10.0 mi NW 9.2 mph - N/A   Clear
7:55 PM 73.4 °F - 62.6 °F 69% 29.83 in 10.0 mi NW 8.1 mph - N/A   Clear
8:15 PM 73.4 °F - 62.6 °F 69% 29.83 in 10.0 mi NW 8.1 mph - N/A   Clear
8:35 PM 71.6 °F - 62.6 °F 73% 29.84 in 10.0 mi NW 6.9 mph - N/A   Clear
8:55 PM 71.6 °F - 62.6 °F 73% 29.83 in 10.0 mi NNW 9.2 mph - N/A   Clear
9:15 PM 71.6 °F - 62.6 °F 73% 29.84 in 10.0 mi NNW 9.2 mph - N/A   Clear
9:35 PM 71.6 °F - 62.6 °F 73% 29.85 in 10.0 mi NNW 12.7 mph - N/A   Clear
9:55 PM 71.6 °F - 62.6 °F 73% 29.85 in 10.0 mi NNW 11.5 mph - N/A   Clear
10:15 PM 71.6 °F - 62.6 °F 73% 29.86 in 10.0 mi NNW 11.5 mph - N/A   Clear
10:35 PM 71.6 °F - 62.6 °F 73% 29.86 in 10.0 mi NNW 9.2 mph - N/A   Clear
10:55 PM 69.8 °F - 62.6 °F 78% 29.86 in 10.0 mi NNW 10.4 mph - N/A   Clear
11:15 PM 69.8 °F - 62.6 °F 78% 29.86 in 10.0 mi NNW 9.2 mph - N/A   Clear
11:35 PM 69.8 °F - 62.6 °F 78% 29.87 in 10.0 mi NNW 8.1 mph - N/A   Scattered Clouds
11:55 PM 69.8 °F - 62.6 °F 78% 29.86 in 10.0 mi NNW 9.2 mph - N/A   Overcast